• In Latvia
  • List of Countries
  • For 7 days
  • Water Temperature
  • Satellite Maps
  • Weather Map
  • Weather Widgets
  • user-avatar
    Login

    Hourly Weather Yakima

    Today, 22 September, Saturday

    Time Temperature Precipitation Wind Pressure Humidity
    00:00 +16°C° 0 mm 2 mps 730 mmHg 65%
    01:00 +16°C° 0 mm 2 mps 730 mmHg 68%
    02:00 +16°C° 0 mm 2 mps 730 mmHg 71%
    03:00 +16°C° 0 mm 2 mps 730 mmHg 73%
    04:00 +15°C° 0 mm 2 mps 730 mmHg 76%
    05:00 +16°C° 0 mm 2 mps 730 mmHg 74%
    06:00 +16°C° 0 mm 2 mps 731 mmHg 73%
    07:00 +16°C° 0 mm 3 mps 731 mmHg 71%
    08:00 +18°C° 0 mm 3 mps 731 mmHg 63%
    09:00 +19°C° 0 mm 4 mps 731 mmHg 54%
    10:00 +20°C° 0 mm 5 mps 731 mmHg 46%
    11:00 +21°C° 0 mm 5 mps 731 mmHg 44%
    12:00 +21°C° 0 mm 5 mps 731 mmHg 42%
    13:00 +22°C° 0 mm 5 mps 731 mmHg 40%
    14:00 +22°C° 0 mm 5 mps 731 mmHg 41%
    15:00 +22°C° 0 mm 5 mps 731 mmHg 41%
    16:00 +22°C° 0 mm 5 mps 730 mmHg 42%
    17:00 +20°C° 0 mm 5 mps 730 mmHg 49%
    18:00 +18°C° 0 mm 4 mps 731 mmHg 56%
    19:00 +15°C° 0 mm 4 mps 731 mmHg 63%
    20:00 +14°C° 0 mm 4 mps 731 mmHg 67%
    21:00 +13°C° 0 mm 3 mps 731 mmHg 71%
    22:00 +12°C° 0 mm 3 mps 731 mmHg 75%
    23:00 +11°C° 0 mm 3 mps 731 mmHg 76%

    Tomorrow, 23 September, Sunday

    Time Temperature Precipitation Wind Pressure Humidity
    00:00 +11°C° 0 mm 3 mps 732 mmHg 77%
    01:00 +10°C° 0 mm 3 mps 732 mmHg 78%
    02:00 +10°C° 0 mm 3 mps 732 mmHg 78%
    03:00 +9°C° 0 mm 3 mps 732 mmHg 78%
    04:00 +9°C° 0 mm 3 mps 732 mmHg 77%
    05:00 +9°C° 0 mm 3 mps 733 mmHg 74%
    06:00 +10°C° 0 mm 3 mps 733 mmHg 71%
    07:00 +10°C° 0 mm 3 mps 734 mmHg 68%
    08:00 +13°C° 0 mm 3 mps 734 mmHg 59%
    09:00 +16°C° 0 mm 2 mps 734 mmHg 50%
    10:00 +19°C° 0 mm 2 mps 734 mmHg 40%
    11:00 +20°C° 0 mm 2 mps 734 mmHg 38%
    12:00 +21°C° 0 mm 2 mps 734 mmHg 35%
    13:00 +23°C° 0 mm 2 mps 734 mmHg 32%
    14:00 +23°C° 0 mm 2 mps 734 mmHg 33%
    15:00 +22°C° 0 mm 3 mps 733 mmHg 35%
    16:00 +22°C° 0 mm 3 mps 733 mmHg 36%
    17:00 +19°C° 0 mm 3 mps 733 mmHg 43%
    18:00 +17°C° 0 mm 3 mps 733 mmHg 51%
    19:00 +14°C° 0 mm 3 mps 734 mmHg 59%
    20:00 +13°C° 0 mm 3 mps 734 mmHg 63%
    21:00 +12°C° 0 mm 3 mps 734 mmHg 67%
    22:00 +11°C° 0 mm 3 mps 734 mmHg 70%
    23:00 +11°C° 0 mm 3 mps 735 mmHg 72%

    Day after tomorrow, 24 September, Monday

    Time Temperature Precipitation Wind Pressure Humidity
    00:00 +11°C° 0 mm 3 mps 735 mmHg 73%
    01:00 +10°C° 0 mm 2 mps 735 mmHg 74%
    02:00 +10°C° 0 mm 2 mps 735 mmHg 75%
    03:00 +10°C° 0 mm 2 mps 735 mmHg 75%
    04:00 +10°C° 0 mm 2 mps 735 mmHg 75%
    05:00 +10°C° 0 mm 2 mps 735 mmHg 73%
    06:00 +12°C° 0 mm 2 mps 736 mmHg 70%
    07:00 +12°C° 0 mm 2 mps 736 mmHg 68%
    08:00 +15°C° 0 mm 2 mps 736 mmHg 58%
    09:00 +18°C° 0 mm 1 mps 736 mmHg 49%
    10:00 +21°C° 0 mm 1 mps 737 mmHg 40%
    11:00 +22°C° 0 mm 1 mps 736 mmHg 36%
    12:00 +23°C° 0 mm 1 mps 736 mmHg 33%
    13:00 +24°C° 0 mm 1 mps 736 mmHg 30%
    14:00 +24°C° 0 mm 1 mps 736 mmHg 30%
    15:00 +24°C° 0 mm 1 mps 736 mmHg 30%
    16:00 +24°C° 0 mm 1 mps 735 mmHg 30%
    17:00 +22°C° 0 mm 1 mps 736 mmHg 36%
    18:00 +19°C° 0 mm 1 mps 736 mmHg 42%
    19:00 +16°C° 0 mm 1 mps 736 mmHg 49%
    20:00 +15°C° 0 mm 1 mps 736 mmHg 51%
    21:00 +15°C° 0 mm 1 mps 737 mmHg 53%
    22:00 +15°C° 0 mm 1 mps 737 mmHg 55%
    23:00 +14°C° 0 mm 2 mps 737 mmHg 56%

    25 September, Tuesday

    Time Temperature Precipitation Wind Pressure Humidity
    00:00 +14°C° 0 mm 2 mps 737 mmHg 58%
    01:00 +14°C° 0 mm 2 mps 737 mmHg 60%
    02:00 +13°C° 0 mm 2 mps 737 mmHg 62%
    03:00 +13°C° 0 mm 1 mps 737 mmHg 63%
    04:00 +13°C° 0 mm 1 mps 737 mmHg 65%
    05:00 +13°C° 0 mm 1 mps 737 mmHg 62%
    06:00 +14°C° 0 mm 1 mps 737 mmHg 60%
    07:00 +15°C° 0 mm 1 mps 738 mmHg 57%
    08:00 +18°C° 0 mm 1 mps 738 mmHg 49%
    09:00 +20°C° 0 mm 1 mps 737 mmHg 41%
    10:00 +23°C° 0 mm 1 mps 737 mmHg 33%
    11:00 +24°C° 0 mm 2 mps 737 mmHg 31%
    12:00 +25°C° 0 mm 2 mps 737 mmHg 28%
    13:00 +26°C° 0 mm 2 mps 736 mmHg 26%
    14:00 +26°C° 0 mm 2 mps 736 mmHg 26%
    15:00 +26°C° 0 mm 2 mps 735 mmHg 25%
    16:00 +26°C° 0 mm 2 mps 735 mmHg 25%
    17:00 +24°C° 0 mm 2 mps 735 mmHg 31%
    18:00 +20°C° 0 mm 2 mps 735 mmHg 36%
    19:00 +19°C° 0 mm 1 mps 735 mmHg 42%
    20:00 +18°C° 0 mm 1 mps 735 mmHg 44%
    21:00 +16°C° 0 mm 1 mps 734 mmHg 47%
    22:00 +16°C° 0 mm 1 mps 734 mmHg 50%
    23:00 +15°C° 0 mm 1 mps 734 mmHg 50%

    26 September, Wednesday

    Time Temperature Precipitation Wind Pressure Humidity
    00:00 +15°C° 0 mm 1 mps 734 mmHg 50%
    01:00 +15°C° 0 mm 1 mps 734 mmHg 49%
    02:00 +15°C° 0 mm 2 mps 734 mmHg 48%
    03:00 +14°C° 0 mm 2 mps 734 mmHg 47%
    04:00 +14°C° 0 mm 2 mps 733 mmHg 45%
    05:00 +15°C° 0 mm 2 mps 734 mmHg 44%
    06:00 +15°C° 0 mm 1 mps 734 mmHg 42%
    07:00 +16°C° 0 mm 1 mps 734 mmHg 41%
    08:00 +19°C° 0 mm 1 mps 734 mmHg 36%
    09:00 +21°C° 0 mm 2 mps 734 mmHg 32%
    10:00 +24°C° 0 mm 2 mps 735 mmHg 27%
    11:00 +25°C° 0 mm 2 mps 734 mmHg 26%
    12:00 +26°C° 0 mm 2 mps 734 mmHg 25%
    13:00 +27°C° 0 mm 2 mps 734 mmHg 24%
    14:00 +27°C° 0 mm 2 mps 733 mmHg 24%
    15:00 +27°C° 0 mm 2 mps 733 mmHg 25%
    16:00 +27°C° 0 mm 2 mps 733 mmHg 26%
    17:00 +24°C° 0 mm 2 mps 733 mmHg 31%
    18:00 +22°C° 0 mm 1 mps 733 mmHg 36%
    19:00 +19°C° 0 mm 1 mps 733 mmHg 42%
    20:00 +19°C° 0 mm 1 mps 733 mmHg 43%
    21:00 +18°C° 0 mm 1 mps 733 mmHg 43%
    22:00 +17°C° 0 mm 2 mps 733 mmHg 44%
    23:00 +16°C° 0 mm 2 mps 733 mmHg 45%

    27 September, Thursday

    Time Temperature Precipitation Wind Pressure Humidity
    00:00 +16°C° 0 mm 1 mps 733 mmHg 46%
    01:00 +15°C° 0 mm 1 mps 732 mmHg 47%
    02:00 +15°C° 0 mm 1 mps 732 mmHg 47%
    03:00 +14°C° 0 mm 1 mps 732 mmHg 47%
    04:00 +14°C° 0 mm 1 mps 732 mmHg 47%
    05:00 +15°C° 0 mm 1 mps 732 mmHg 46%
    06:00 +15°C° 0 mm 1 mps 732 mmHg 44%
    07:00 +16°C° 0 mm 1 mps 732 mmHg 43%
    08:00 +19°C° 0 mm 1 mps 732 mmHg 36%
    09:00 +22°C° 0 mm 1 mps 731 mmHg 29%
    10:00 +24°C° 0 mm 1 mps 731 mmHg 23%
    11:00 +26°C° 0 mm 2 mps 731 mmHg 22%
    12:00 +27°C° 0 mm 2 mps 730 mmHg 21%
    13:00 +28°C° 0 mm 3 mps 729 mmHg 20%
    14:00 +29°C° 0 mm 3 mps 729 mmHg 21%
    15:00 +29°C° 0 mm 3 mps 728 mmHg 22%
    16:00 +29°C° 0 mm 4 mps 727 mmHg 23%
    17:00 +26°C° 0 mm 4 mps 727 mmHg 30%
    18:00 +23°C° 0 mm 4 mps 726 mmHg 37%
    19:00 +20°C° 0 mm 3 mps 726 mmHg 44%
    20:00 +19°C° 0 mm 3 mps 726 mmHg 49%
    21:00 +18°C° 0 mm 3 mps 726 mmHg 55%
    22:00 +17°C° 0 mm 3 mps 726 mmHg 60%
    23:00 +17°C° 0 mm 3 mps 726 mmHg 63%
    Show more